Regional Weather Roundup
Issued by NWS

Home | Current Version | Previous Version | Text Only | Print | Product List | Glossary On
Versions: 1 2 3 4 5 6 7 8 9 10 11 12 13 14 15 16 17 18 19 20 21 22 23 24 25 26 27 28 29 30 31 32 33 34 35 36 37 38 39 40 41 42 43 44 45 46 47 48 49 50
000
ASUS44 KLUB 171510
RWRTX
WEST TEXAS WEATHER ROUNDUP
NATIONAL WEATHER SERVICE LUBBOCK TX
900 AM CST TUE JAN 17 2017

NOTE: "FAIR" INDICATES FEW OR NO CLOUDS BELOW 12,000 FEET WITH NO
SIGNIFICANT WEATHER AND/OR OBSTRUCTIONS TO VISIBILITY.

TXZ004-006>008-010-012-014-016-OKZ002-171600-
TEXAS PANHANDLE/OKLAHOMA PANHANDLE

CITY           SKY/WX    TMP DP  RH WIND       PRES   REMARKS
AMARILLO       CLOUDY    36  33  89 NW5       30.17R WCI  32
BORGER         SUNNY     38  33  82 CALM      30.18R
CANADIAN         N/A    N/A N/A N/A MISG        N/A
DALHART        CLEAR     34  30  85 W5        30.16S WCI  30
DUMAS          SUNNY     34  32  92 CALM      30.15S
GUYMON         SUNNY     35  32  88 W7        30.15R WCI  29
HEREFORD       MOSUNNY   33  33  99 SE5       30.20R WCI  28
PAMPA          SUNNY     34  32  94 NW6       30.17R WCI  29
$$

TXZ026-029-035-045-048-171600-
SOUTHERN PANHANDLE/SOUTH PLAINS/ROLLING PLAINS

CITY           SKY/WX    TMP DP  RH WIND       PRES   REMARKS
CHILDRESS      SUNNY     35  32  88 NW8       30.20S WCI  29
SEMINOLE       PTSUNNY   37  33  87 NE9       30.20R WCI  30
LUBBOCK        PTSUNNY   35  32  88 N9        30.18R WCI  28
PLAINVIEW      SUNNY     34  31  90 N9        30.17R WCI  26
SNYDER         CLOUDY    37  34  89 NE9       30.20R WCI  30
$$

TXZ052-054-060>062-072-078-127-140-154-169-171600-
PERMIAN BASIN/CONCHO VALLEY/BIG COUNTRY/EDWARDS PLATEAU

CITY           SKY/WX    TMP DP  RH WIND       PRES   REMARKS
ABILENE        MOSUNNY   38  36  92 N6        30.21R WCI  33
BIG SPRING     MOSUNNY   38  34  85 N14       30.19S WCI  30
BROWNWOOD      CLOUDY    45  37  76 N6        30.20R
JUNCTION       CLOUDY    48  40  73 E10       30.13R
MIDLAND        CLOUDY    38  34  85 N13       30.15S WCI  30
ODESSA         SUNNY     37  34  89 N9        30.16R WCI  30
SAN ANGELO     CLOUDY    44  37  76 N14       30.16R
SONORA         CLOUDY    46  37  71 NE12      30.15R
SWEETWATER     CLOUDY    38  37  96 NE7       30.21S WCI  33
WINK           SUNNY     39  34  82 N9        30.16R WCI  33
$$

TXZ055-058-074-075-080-082-171600-
FAR WEST/SOUTHWEST MOUNTAINS/TRANS PECOS

CITY           SKY/WX    TMP DP  RH WIND       PRES   REMARKS
ALPINE         CLOUDY    37  37  99 NE10      30.18R VSB<1/4 WCI  30
DRYDEN           N/A     50  43  77 N16       30.07R
EL PASO        PTCLDY    42  35  76 N10       30.08R
FORT STOCKTON  CLOUDY    38  37  97 N8        30.16R WCI  32
MARFA          MOSUNNY   40  35  83 N10       30.11R WCI  33
PECOS          CLOUDY    41  35  80 N13       30.19R
$$

TXZ014-016-019-021>030-083-171600
TEXAS TECH WEST TEXAS MESONET/TEXAS PANHANDLE/NORTHERN SOUTH PLAINS

CITY           SKY/WX    TMP DP  RH WIND       PRES   REMARKS
ABERNATHY 5ENE   N/A     32  32  99 N8        30.19R WCI  25
AMARILLO 9NNE    N/A     35  34  94 S1        30.18S
AMARILLO 7SSE    N/A     36  32  87 CALM      30.20R
AMHERST 1NE      N/A     33  32  96 N5        30.19R WCI  28
BOOTLEG 11WNW    N/A     31  29  90 CALM      30.20R
CANADIAN 6E      N/A     35  32  90 W3        30.16R
CAPROCK CYN SP   N/A     40  31  71 N8        30.20R WCI  34
CHILDRESS 2NNE   N/A     34  32  91 NW12      30.18S WCI  25
CLARENDON 2WSW   N/A     33  30  91 W3        30.19R
CLAUDE 12SW      N/A     35  31  86 NW3       30.19R
DIMMITT 2NE      N/A     30  29  97 CALM      30.19R
FLOYDADA 2NNE    N/A     33  33  96 CALM      30.18R
FRIONA 2NE       N/A     26  26  96 N1        30.19S
GOODLETT 3W      N/A     36  32  87 NW9       30.19R WCI  29
HART 3N          N/A     33  32  95 N6        30.18F WCI  28
MCLEAN 1E        N/A     34  31  90 NW5       30.16R WCI  30
MEMPHIS 1NE      N/A     33  31  91 NW3       30.19S
MULESHOE 2SSW    N/A     32  31  96 NW9       30.18F WCI  25
OLTON 6S         N/A     33  31  94 N14       30.18R WCI  23
PALO DURO SP     N/A     38  31  78 CALM      30.20R
PAMPA 2E         N/A     32  31  96 NW8       30.16R WCI  25
PLAINVIEW 1S     N/A     34  32  92 N9        30.17S WCI  27
SILVERTON 7ESE   N/A     33  30  90 NW5       30.19S WCI  29
TULIA 2ENE       N/A     33  32  99 NW7       30.18S WCI  26
TURKEY 2WSW      N/A     36  33  91 NW8       30.19S WCI  29
UMBARGER 3NNE    N/A     33  32  96 S3        30.20R
$$

TXZ033>036-039>041-045>048-171600
TEXAS TECH WEST TEXAS MESONET/SOUTH PLAINS

CITY           SKY/WX    TMP DP  RH WIND       PRES   REMARKS
AIKEN 3WSW       N/A     34  32  93 N9        30.20R WCI  27
ANDREWS 2NE      N/A     35  33  92 N8        30.18S WCI  29
ANTON 6SSW       N/A     33  32  97 NW2       30.19R
BROWNFIELD 2S    N/A     35  32  87 N8        30.20R WCI  29
DENVR CTY 7WNW   N/A     32  30  92 N8        30.18R WCI  25
GAIL 2ESE        N/A     37  35  90 N5        30.19R WCI  34
LEVELLAND 4S     N/A     32  29  90 N5        30.19R WCI  27
LUBBOCK 3WNW     N/A     33  33  99 N3        30.19S
MORTON 1ENE      N/A     32  31  94 NW3       30.19R
ODONNELL 1N      N/A     34  32  92 NE7       30.20R WCI  28
PLAINS 3N        N/A     33  32  96 N8        30.18R WCI  26
RALLS 1SE        N/A     34  32  92 N13       30.19R WCI  25
REESE CENTER     N/A     31  30  96 N5        30.19R WCI  27
SEAGRAVES 1SW    N/A     34  32  92 N6        30.19R WCI  29
SEMINOLE 2NNE    N/A     35  33  90 N8        30.19R WCI  29
SLATON 2NE       N/A     34  32  94 NE6       30.20R WCI  29
SNYDER 3E        N/A     37  34  89 NE8       30.20R WCI  31
SUNDOWN 8SW      N/A     32  31  94 N6        30.18R WCI  27
TAHOKA 3NNE      N/A     36  33  87 N8        30.20R WCI  30
WOLFFORTH 6SSW   N/A     33  32  94 N6        30.19R WCI  28
$$

TXZ031-032-036>038-042>044-171600-
TEXAS TECH WEST TEXAS MESONET/ROLLING PLAINS

CITY           SKY/WX    TMP DP  RH WIND       PRES   REMARKS
ASPERMONT 3NE    N/A     35  33  95 W3        30.23R
FLUVANNA 3WNW    N/A     37  33  87 N6        30.19S WCI  32
GRAHAM 5SSW      N/A     34  32  90 N6        30.20R WCI  29
GUTHRIE 10WSW    N/A     36  32  85 N3        30.21R
HASKELL 1NW      N/A     37  36  99 NW5       30.21S WCI  33
JAYTON 1SSE      N/A     32  31  97 W1        30.22S
KNOX CITY 3NW    N/A     35  32  88 SW3       30.23S
LK A HENRY 1NW   N/A     40  35  80 NE2       30.22R
NORTHFIELD 1S    N/A     34  33  99 NW3       30.20S
PADUCAH 10SW     N/A     36  33  90 NW9       30.20R WCI  29
POST 1NE         N/A     35  32  90 N3        30.21R
RRING SPRGS 3N   N/A     38  35  89 NW9       30.19R WCI  31
SEYMOUR 3NW      N/A     37  35  90 NW5       30.21R WCI  34
SPUR 1W          N/A     36  33  88 NW1       30.20R
WEINERT 2NNE     N/A     37  34  88 NW5       30.22S WCI  33
$$

TXZ052-054-060>062-072-078-127-140-154-169-171600-
TEXAS TECH WEST TEXAS MESONET/PERMIAN BASIN/
CONCHO VALLEY/BIG COUNTRY/EDWARDS PLATEAU

CITY           SKY/WX    TMP DP  RH WIND       PRES   REMARKS
COYANOSA 2N      N/A     40  36  86 N2        30.19R
JUNCTION 1SSW    N/A     48  40  74 NE9       30.14R
MERTZON 3NNE     N/A     42  36  79 N14       30.17R
SAN ANGELO 7NW   N/A     43  35  71 NE5       30.18R
STRLNG CT 4WSW   N/A     40  34  77 N7        30.19R
ST LAWRNCE 5SW   N/A     39  34  83 NE9       30.16R WCI  33
SWEETWATR 11SW   N/A     38  35  89 NE16      30.18S WCI  29
WALL 1E          N/A     43  38  83 CALM      30.16F
$$

TXZ055-058-074-075-080-082-171600-
TEXAS TECH WEST TEXAS MESONET/FAR WEST/SOUTHWEST MOUNTAINS/TRANS PECOS

CITY           SKY/WX    TMP DP  RH WIND       PRES   REMARKS
PRSMN GAP BBNP   N/A     52  42  68 NE24      30.05R
GUADLPE MTN NP   N/A     35  34  95 NE12      30.15R WCI  27
$$



USA.gov is the U.S. government's official web portal to all federal, state and local government web resources and services.